Regional Weather Roundup
Issued by NWS

Home | Current Version | Previous Version | Text Only | Print | Product List | Glossary On
Versions: 1 2 3 4 5 6 7 8 9 10 11 12 13 14 15 16 17 18 19 20 21 22 23 24 25 26 27 28 29 30 31 32 33 34 35 36 37 38 39 40 41 42 43 44 45 46 47 48 49 50
000
ASUS43 KOAX 222210
RWRNE

WEATHER ROUNDUP FOR NEBRASKA
NATIONAL WEATHER SERVICE OMAHA NE
500 PM CDT SAT SEP 22 2018

NOTES: SATELLITE DATA IS BEING USED TO AUGMENT CLOUD COVER ABOVE
       12000 FEET.
       "FAIR" INDICATES FEW OR NO CLOUDS BELOW 12,000 FEET WITH NO
       SIGNIFICANT WEATHER AND/OR OBSTRUCTIONS TO VISIBILITY.


NEZ001>004-019>022-054>056-222300-
NEBRASKA PANHANDLE

CITY           SKY/WX    TMP DP  RH WIND       PRES   REMARKS
SCOTTSBLUFF    SUNNY     90  20   7 W7        29.97F
ALLIANCE       SUNNY     88  20   8 W12       29.96F
CHADRON        SUNNY     90  17   7 W14G22    29.89F
GORDON         FAIR      88  25  10 NW9       29.93F
KIMBALL        SUNNY     88  16   7 W15G22    30.04F
SIDNEY         SUNNY     89  15   6 VRB3      30.02F
$$

NEZ057>060-069>072-079>082-222300-
SOUTHWEST NEBRASKA

CITY           SKY/WX    TMP DP  RH WIND       PRES   REMARKS
NORTH PLATTE   SUNNY     83  44  25 SW15G26   30.00F
IMPERIAL       SUNNY     87  41  19 S13G25    30.00F
LEXINGTON      SUNNY     78  44  29 S20G25    30.05S
MCCOOK         SUNNY     82  43  25 S17G28    30.03F
OGALLALA       SUNNY     89  42  19 S12G18    29.97F
$$

NEZ005>010-023>029-035>040-094-222300-
NORTH CENTRAL NEBRASKA

CITY           SKY/WX    TMP DP  RH WIND       PRES   REMARKS
VALENTINE      MOSUNNY   86  46  24 SW16      29.91F
AINSWORTH      MOSUNNY   78  48  35 S16G26    29.96F
BROKEN BOW     SUNNY     76  45  33 S18G29    30.02F
O`NEILL        SUNNY     75  43  31 S20G26    30.00F
ORD            SUNNY     76  43  30 S20G30    30.01F
THEDFORD       SUNNY     82  47  29 S21G26    29.98F
$$

NEZ041-046>049-061>064-073>077-083>087-222300-
SOUTH CENTRAL NEBRASKA

CITY           SKY/WX    TMP DP  RH WIND       PRES   REMARKS
GRAND ISLAND   SUNNY     73  47  39 S17G24    30.07F
AURORA         SUNNY     73  45  36 S14G20    30.08F
HASTINGS       SUNNY     72  47  40 S13G21    30.09F
HEBRON         SUNNY     73  47  39 S9        30.10F
HOLDREGE       SUNNY     72  47  40 S16G28    30.07F
KEARNEY        SUNNY     74  46  36 S18G26    30.06F
YORK           SUNNY     72  45  37 S14       30.09F
$$

NEZ011>018-030>034-042>045-222300-
NORTHEAST NEBRASKA

CITY           SKY/WX    TMP DP  RH WIND       PRES   REMARKS
NORFOLK        SUNNY     74  46  36 S17G23    30.03F
ALBION         SUNNY     74  47  37 S17       30.05F
BLAIR          SUNNY     71  48  43 S8        30.10F
COLUMBUS       SUNNY     74  47  38 S15       30.08F
FREMONT        SUNNY     73  44  35 S9        30.10F
TEKAMAH        SUNNY     71  48  43 SE12G21   30.09F
WAYNE          SUNNY     72  35  25 S14       30.05F
$$

NEZ050>053-065>068-078-088>093-222300-
SOUTHEAST NEBRASKA

CITY           SKY/WX    TMP DP  RH WIND       PRES   REMARKS
LINCOLN        SUNNY     72  47  40 SE13      30.11F
OMAHA EPPLEY   SUNNY     71  45  39 S10       30.11F
BEATRICE       SUNNY     73  49  42 SE9       30.11F
FALLS CITY     SUNNY     72  44  36 SE8       30.11F
NEBRASKA CITY  SUNNY     70  38  30 SE5       30.12F
PLATTSMOUTH    SUNNY     71  47  42 SE8       30.12F
$$

NEZ044-045-051>053-067-222300-
OMAHA AREA

CITY           SKY/WX    TMP DP  RH WIND       PRES   REMARKS
OMAHA EPPLEY   SUNNY     71  45  39 S10       30.11F
BLAIR          SUNNY     71  48  43 S8        30.10F
FREMONT        SUNNY     73  44  35 S9        30.10F
MILLARD        SUNNY     73  49  42 S9        30.11F
OFFUTT AFB     SUNNY     71  48  45 SE10      30.10F
PLATTSMOUTH    SUNNY     71  47  42 SE8       30.12F
WAHOO          FAIR      73  45  37 S12       30.10F
$$



USA.gov is the U.S. government's official web portal to all federal, state and local government web resources and services.